Date,TemperatureHighF,TemperatureAvgF,TemperatureLowF,DewpointHighF,DewpointAvgF,DewpointLowF,HumidityHigh,HumidityAvg,HumidityLow,PressureMaxIn,PressureMinIn,WindSpeedMaxMPH,WindSpeedAvgMPH,GustSpeedMaxMPH,PrecipitationSumIn
2013-3-1,54,42,31,33,29,26,82,62,42,29.98,29.86,16,1,16,0.00
2013-3-2,45,38,34,37,30,26,85,74,57,29.96,29.87,15,2,15,0.00
2013-3-3,49,38,30,26,23,20,79,57,36,30.04,29.92,15,2,15,0.00
2013-3-4,61,43,25,35,25,19,81,53,24,30.20,30.03,12,1,12,0.00
2013-3-5,69,54,38,57,43,31,91,68,52,30.09,29.66,26,3,26,0.33
2013-3-6,49,42,35,33,27,19,76,56,43,30.13,29.79,31,5,31,0.00
2013-3-7,61,43,28,37,31,25,92,66,34,30.25,30.12,11,1,11,0.00
2013-3-8,61,46,32,34,30,26,84,57,29,30.30,30.17,10,1,11,0.00
2013-3-9,65,49,34,36,31,27,83,53,27,30.34,30.21,13,1,13,0.00
2013-3-10,70,56,42,49,42,34,81,61,36,30.27,30.11,14,2,14,0.00
2013-3-11,71,59,48,56,49,41,82,71,53,30.15,29.80,16,2,16,0.01
2013-3-12,68,59,50,58,48,36,95,69,36,30.00,29.75,15,2,15,0.26
2013-3-13,62,51,39,36,30,23,76,46,24,30.17,30.00,25,3,25,0.00
2013-3-14,57,44,30,29,24,20,73,47,27,30.33,30.17,13,1,13,0.00
2013-3-15,73,55,32,42,33,22,77,46,30,30.22,29.98,20,2,20,0.00
2013-3-16,79,66,53,46,43,40,68,46,27,30.00,29.84,17,3,21,0.00
2013-3-17,75,65,56,56,51,45,81,62,42,30.00,29.90,17,2,17,0.00
2013-3-18,67,58,48,60,54,46,95,85,74,30.02,29.79,19,1,19,0.61
2013-3-19,72,57,47,51,40,23,96,63,17,30.02,29.82,17,2,17,0.26
2013-3-20,62,51,42,35,28,20,68,42,23,30.11,29.85,14,1,14,0.00
2013-3-21,54,45,37,28,20,8,68,39,20,29.95,29.83,22,2,22,0.00
2013-3-22,51,43,35,35,24,18,66,49,37,30.08,29.95,11,1,12,0.00
2013-3-23,54,48,44,50,42,35,95,82,64,30.05,29.85,12,2,12,0.35
2013-3-24,49,47,45,48,46,44,99,94,91,29.87,29.54,16,3,16,1.65
2013-3-25,50,44,38,45,29,22,96,58,36,30.01,29.61,28,5,28,0.01
2013-3-26,48,40,32,28,26,23,74,58,44,30.22,29.99,19,3,19,0.00
2013-3-27,58,43,28,31,27,24,85,57,29,30.30,30.18,13,1,13,0.00
2013-3-28,62,47,30,32,28,25,85,50,25,30.32,30.18,8,1,13,0.00
2013-3-29,68,52,35,38,31,25,71,47,24,30.34,30.18,13,1,13,0.00
2013-3-30,75,61,49,49,44,35,78,54,33,30.21,30.02,12,1,12,0.00
2013-3-31,76,66,59,61,55,49,90,68,46,30.02,29.83,23,3,23,0.09